Location: Recife
(8.0585°S, 34.8848°W)
Time: 00:37:42
(UTC-03:00)

A-11 Canister half - Pass Details

Date: 17 April 2026
Orbit: 1515 x 1684 km, 47.2° (Epoch: 11 May)

Event Time Altitude Azimuth Distance (km) Brightness Sun altitude
Exits shadow 03:21:08 10° 332° (NNW) 3,628 10.8 -30.3°
Drops below altitude 10° 03:21:26 10° 334° (NNW) 3,662 10.8 -30.3°
Sets 03:27:01 0° 0° (N) 4,650 11.6 -28.9°
